Volver al catálogo

YZ-1 R/B

ActivoMEO
NORAD 43605·ROCKET BODY·🇨🇳 China

Lanzado Aug 24, 2018 desde Xichang Satellite Launch Center

Loading…

Próximos Pases (próximas 24 horas)

TLE

EnvejeciendoSource: Space-Track

Época: Aug 27, 2026, 13:48 UTC

1 43605U 18067D   26239.57565541  .00000015  00000-0  00000+0 0  9995
2 43605  53.7973 186.1479 0055209  50.0032 310.4410  1.78798375 52286

Sigue YZ-1 R/B en tiempo real con AllMySat

Download on the App Store